GW5866 Weather Reports


time (UTC)temp
C
wind
direction
speed
KPH
gust
KPH
rain 1hr
cm
rain 24hr
cm
rain mn
cm
humidity
%
barometer
mb
20260507161524 12 71 6.4 19.3 0.51 2.84 2.84 91 1011.4
20260507160027 12 58 9.7 22.5 0.51 2.67 2.67 91 1011.4
20260507154518 12 55 9.7 22.5 0.46 2.62 2.62 90 1011.2
20260507153024 12 61 6.4 19.3 0.38 2.51 2.51 90 1011.2
20260507151524 12 14 6.4 20.9 0.20 2.34 2.34 89 1011.8
20260507150033 12 352 9.7 29.0 0.05 2.18 2.18 87 1012.0
20260507144511 12 33 9.7 22.5 0.03 2.16 2.16 87 1011.5
20260507143019 12 22 8.0 24.1 0.00 2.13 2.13 86 1011.5
20260507141523 13 9 11.3 27.4 0.00 2.13 2.13 89 1011.2
20260507140036 13 30 9.7 29.0 0.03 2.13 2.13 90 1011.0
20260507134526 14 54 8.0 14.5 0.08 2.13 2.13 92 1011.1
20260507133017 14 75 4.8 17.7 0.08 2.13 2.13 92 1010.9
20260507131534 14 63 6.4 17.7 0.10 2.13 2.13 91 1010.9
20260507130026 15 54 6.4 17.7 0.18 2.11 2.11 92 1010.9
20260507124530 15 74 6.4 22.5 0.18 2.06 2.06 92 1011.2
20260507123035 15 37 6.4 19.3 0.18 2.06 2.06 92 1011.0
20260507121522 15 9 4.8 17.7 0.23 2.03 2.03 91 1011.1
20260507120031 15 31 3.2 19.3 0.15 1.93 1.93 91 1011.3
20260507114527 15 9 4.8 19.3 0.20 1.88 1.88 90 1011.1
20260507113031 15 57 4.8 16.1 0.33 1.88 1.88 90 1010.8
20260507111520 17 345 11.3 20.9 0.51 1.80 1.80 89 1010.9
20260507110021 18 279 0.0 12.9 1.04 1.78 1.78 91 1010.2
20260507104526 18 290 1.6 3.2 1.27 1.68 1.68 91 1010.0
20260507103027 18 284 1.6 9.7 1.14 1.55 1.55 90 1009.9
20260507101522 18 302 3.2 4.8 0.91 1.30 1.30 89 1009.8
20260507100032 18 257 0.0 1.6 0.71 0.74 0.74 89 1009.8
20260507094523 18 315 0.0 3.2 0.38 0.41 0.41 88 1009.0
20260507093028 19 296 0.0 3.2 0.38 0.41 0.41 87 1008.8
20260507091516 19 315 1.6 4.8 0.36 0.38 0.38 85 1008.9
20260507090019 20 266 1.6 12.9 0.00 0.03 0.03 83 1009.2
20260507084543 20 263 1.6 11.3 0.00 0.03 0.03 82 1009.1
20260507083027 20 265 1.6 11.3 0.00 0.03 0.03 81 1009.3
20260507081527 20 236 1.6 14.5 0.00 0.03 0.03 82 1009.5
20260507080019 20 292 1.6 11.3 0.00 0.03 0.03 82 1009.6
20260507074524 20 238 1.6 8.0 0.00 0.03 0.03 83 1010.0
20260507073026 20 257 1.6 3.2 0.03 0.03 0.03 83 1009.7
20260507071532 20 285 3.2 4.8 0.03 0.03 0.03 82 1009.7
20260507070028 20 272 1.6 4.8 0.03 0.03 0.03 82 1009.8
20260507064521 20 352 0.0 3.2 0.03 0.03 0.03 81 1009.4
20260507063024 20 195 3.2 12.9 0.00 0.00 0.00 81 1009.3
20260507061508 20 224 1.6 9.7 0.00 0.00 0.00 80 1009.9
20260507060011 20 257 1.6 4.8 0.00 0.00 0.00 79 1010.6
20260507054523 21 305 1.6 11.3 0.00 0.00 0.00 77 1010.8
20260507053021 21 296 0.0 6.4 0.00 0.00 0.00 75 1010.9
20260507051505 21 240 1.6 6.4 0.00 0.00 0.00 73 1010.9
20260507050031 21 271 1.6 9.7 0.00 0.00 0.00 71 1010.7
20260507044521 22 224 0.0 6.4 0.00 0.00 0.00 70 1010.4
20260507043020 21 282 1.6 8.0 0.00 0.00 0.00 70 1010.7
20260507041504 21 269 1.6 6.4 0.00 0.00 0.00 70 1010.6
20260507040006 21 209 0.0 6.4 0.00 0.00 0.00 71 1010.5
20260507034513 22 284 0.0 3.2 0.00 0.00 0.00 69 1010.2
20260507033024 22 272 0.0 3.2 0.00 0.00 0.00 69 1010.2
20260507031528 22 272 0.0 3.2 0.00 0.00 0.00 69 1010.1
20260507030008 22 235 0.0 3.2 0.00 0.00 0.00 68 1010.8
20260507024516 22 228 0.0 3.2 0.00 0.00 0.00 68 1010.9
20260507023015 22 272 0.0 4.8 0.00 0.00 0.00 68 1011.0
20260507021535 22 235 1.6 8.0 0.00 0.00 0.00 67 1010.8
20260507020027 22 263 0.0 9.7 0.00 0.00 0.00 66 1010.9
20260507014508 22 254 0.0 3.2 0.00 0.00 0.00 66 1011.0
20260507013015 22 241 0.0 4.8 0.00 0.00 0.00 65 1010.7
20260507011527 23 281 1.6 3.2 0.00 0.00 0.00 64 1010.8
20260507010037 23 271 1.6 3.2 0.00 0.00 0.00 63 1010.9
20260507004525 23 284 1.6 3.2 0.00 0.00 0.00 62 1010.9
20260507003010 23 284 1.6 3.2 0.00 0.00 0.00 61 1010.6
20260507001516 24 273 1.6 8.0 0.00 0.00 0.00 59 1010.5
20260507000023 24 240 3.2 11.3 0.00 0.00 0.00 59 1010.2
20260506234524 25 261 1.6 6.4 0.00 0.00 0.00 57 1010.2
20260506233012 25 311 1.6 8.0 0.00 0.00 0.00 56 1010.0
20260506231522 25 250 3.2 8.0 0.00 0.00 0.00 55 1009.9
20260506230018 25 236 1.6 4.8 0.00 0.00 0.00 55 1009.9
20260506224527 25 284 1.6 8.0 0.00 0.00 0.00 55 1009.9
20260506223027 25 223 3.2 11.3 0.00 0.00 0.00 55 1010.0
20260506221516 25 267 3.2 11.3 0.00 0.00 0.00 55 1009.9
20260506220027 25 253 3.2 14.5 0.00 0.00 0.00 55 1009.9
20260506214525 25 241 3.2 20.9 0.00 0.00 0.00 55 1009.6
20260506213030 25 242 4.8 16.1 0.00 0.00 0.00 55 1009.7
20260506211528 25 225 3.2 12.9 0.00 0.00 0.00 55 1009.6
20260506210018 25 260 4.8 19.3 0.00 0.00 0.00 56 1009.6
20260506204531 25 208 4.8 14.5 0.00 0.00 0.00 55 1009.9
20260506203029 25 213 4.8 14.5 0.00 0.00 0.00 54 1010.2
20260506201533 25 277 3.2 14.5 0.00 0.00 0.00 58 1010.3
20260506200017 25 151 3.2 17.7 0.00 0.00 0.00 60 1010.9
20260506194522 25 202 4.8 11.3 0.00 0.00 0.00 60 1011.0
20260506193023 25 252 4.8 11.3 0.00 0.00 0.00 59 1011.5
20260506191528 25 273 6.4 19.3 0.00 0.00 0.00 60 1011.4
20260506190028 25 236 4.8 19.3 0.00 0.00 0.00 60 1011.5
20260506184519 25 191 4.8 24.1 0.00 0.00 0.00 60 1011.6
20260506183023 24 207 8.0 32.2 0.00 0.00 0.00 60 1011.6
20260506181528 24 261 4.8 24.1 0.00 0.00 0.00 60 1011.8
20260506180027 24 274 4.8 17.7 0.00 0.00 0.00 61 1012.2
20260506174528 24 248 9.7 25.7 0.00 0.00 0.00 61 1012.4
20260506173024 23 255 4.8 19.3 0.00 0.00 0.00 62 1012.7
20260506171535 23 271 6.4 19.3 0.00 0.00 0.00 63 1013.1
20260506170027 23 263 6.4 20.9 0.00 0.00 0.00 64 1013.2
20260506164526 22 165 1.6 19.3 0.00 0.00 0.00 66 1013.1
20260506163030 22 299 9.7 20.9 0.00 0.00 0.00 66 1013.3